Track STARLINK-3988 now! 10-day predictions STARLINK-3988 is classified as:
1 52625U 22052AD 22220.91667824 .00005067 00000-0 35117-3 0 9990 2 52625 53.2159 24.1132 0001336 81.6511 226.5063 15.07213722 1303